FDX604 RJBB-RKSI

Flight info

Callsign FDX604
Flight time 1h 28m
Altitude 36000
Route SOUJA Y324 STAGE Y38 SAPRA Y685 GUKDO GUKDO2E
Aircraft B77L/H-SDE1E2E3FGHIJ2J3J4J5M1RWXY/LB1D1

Departure

Time 2026-05-04 04:13
Airport Kansai International Airport (RJBB)

Arrival

Time 2026-05-04 05:41
Airport Incheon International Airport (RKSI)
Time Latitude Longitude Altitude Speed Heading
2026-05-04 04:03 34.43444 135.22503 27 ft 0 kts 233°
2026-05-04 04:06 34.43447 135.22508 27 ft 4 kts 235°
2026-05-04 04:07 34.43459 135.22536 26 ft 4 kts 260°
2026-05-04 04:07 34.43460 135.22568 25 ft 3 kts 275°
2026-05-04 04:07 34.43460 135.22572 27 ft 2 kts 275°
2026-05-04 04:09 34.43460 135.22569 27 ft 2 kts 281°
2026-05-04 04:09 34.43503 135.22543 27 ft 12 kts
2026-05-04 04:09 34.43586 135.22573 27 ft 11 kts
2026-05-04 04:09 34.43650 135.22536 27 ft 12 kts 320°
2026-05-04 04:10 34.43736 135.22450 28 ft 18 kts 320°
2026-05-04 04:10 34.43826 135.22421 28 ft 12 kts 31°
2026-05-04 04:10 34.43938 135.22564 29 ft 37 kts 49°
2026-05-04 04:10 34.44114 135.22832 28 ft 41 kts 54°
2026-05-04 04:11 34.44282 135.23095 28 ft 39 kts 46°
2026-05-04 04:11 34.44449 135.23337 28 ft 36 kts 53°
2026-05-04 04:11 34.44599 135.23569 28 ft 34 kts 52°
2026-05-04 04:11 34.44747 135.23669 30 ft 20 kts 333°
2026-05-04 04:12 34.44819 135.23566 33 ft 19 kts 268°
2026-05-04 04:12 34.44617 135.23228 32 ft 83 kts 231°
2026-05-04 04:12 34.44132 135.22500 32 ft 148 kts 232°
2026-05-04 04:12 34.43396 135.21366 397 ft 182 kts 237°
2026-05-04 04:13 34.42595 135.20182 1220 ft 178 kts 238°
2026-05-04 04:13 34.42074 135.18875 1716 ft 178 kts 270°
2026-05-04 04:13 34.42491 135.17432 2015 ft 199 kts 309°
2026-05-04 04:13 34.43667 135.16412 2476 ft 218 kts 322°
2026-05-04 04:14 34.45017 135.15432 2977 ft 232 kts 322°
2026-05-04 04:14 34.46390 135.14407 3811 ft 230 kts 323°
2026-05-04 04:14 34.47858 135.13754 4895 ft 221 kts 340°
2026-05-04 04:14 34.49335 135.13260 5387 ft 224 kts 325°
2026-05-04 04:15 34.50581 135.12111 5745 ft 228 kts 305°
2026-05-04 04:15 34.51494 135.10498 6000 ft 237 kts 294°
2026-05-04 04:15 34.52286 135.08645 5737 ft 261 kts 292°
2026-05-04 04:15 34.53025 135.06697 6798 ft 245 kts 289°
2026-05-04 04:16 34.53644 135.04829 7923 ft 234 kts 285°
2026-05-04 04:16 34.54205 135.02963 8641 ft 239 kts 284°
2026-05-04 04:16 34.54825 135.01058 9225 ft 247 kts 285°
2026-05-04 04:16 34.55437 134.99081 9886 ft 251 kts 284°
2026-05-04 04:17 34.56046 134.97108 10714 ft 248 kts 283°
2026-05-04 04:17 34.56666 134.95163 11616 ft 247 kts 283°
2026-05-04 04:17 34.57351 134.93250 12504 ft 249 kts 284°
2026-05-04 04:17 34.58117 134.91341 13256 ft 255 kts 284°
2026-05-04 04:18 34.58804 134.89304 13500 ft 268 kts 276°
2026-05-04 04:18 34.59332 134.87037 13671 ft 292 kts 278°
2026-05-04 04:18 34.60030 134.84592 13839 ft 320 kts 282°
2026-05-04 04:18 34.60920 134.81997 14012 ft 346 kts 284°
2026-05-04 04:19 34.61929 134.79282 14478 ft 358 kts 285°
2026-05-04 04:19 34.63057 134.76538 15099 ft 369 kts 289°
2026-05-04 04:19 34.64312 134.73798 15832 ft 372 kts 290°
2026-05-04 04:19 34.65563 134.71046 16647 ft 373 kts 289°
2026-05-04 04:20 34.66817 134.68276 17425 ft 375 kts 289°
2026-05-04 04:20 34.68077 134.65483 18101 ft 379 kts 289°
2026-05-04 04:20 34.69331 134.62697 18674 ft 383 kts 289°
2026-05-04 04:20 34.70616 134.59839 19202 ft 388 kts 289°
2026-05-04 04:21 34.71921 134.56930 19638 ft 395 kts 289°
2026-05-04 04:21 34.73240 134.53990 20184 ft 398 kts 289°
2026-05-04 04:21 34.74569 134.51034 20749 ft 400 kts 288°
2026-05-04 04:21 34.75908 134.48053 21267 ft 403 kts 288°
2026-05-04 04:22 34.77255 134.45051 21787 ft 406 kts 288°
2026-05-04 04:22 34.78615 134.42012 22242 ft 411 kts 288°
2026-05-04 04:22 34.79986 134.38948 22701 ft 414 kts 288°
2026-05-04 04:22 34.81366 134.35854 23019 ft 418 kts 288°
2026-05-04 04:23 34.82755 134.32728 23440 ft 421 kts 288°
2026-05-04 04:23 34.84160 134.29592 23868 ft 423 kts 288°
2026-05-04 04:23 34.85567 134.26446 24256 ft 425 kts 287°
2026-05-04 04:23 34.86983 134.23277 24611 ft 427 kts 287°
2026-05-04 04:24 34.88403 134.20087 24912 ft 431 kts 287°
2026-05-04 04:24 34.89833 134.16862 25234 ft 434 kts 287°
2026-05-04 04:24 34.91277 134.13620 25590 ft 436 kts 287°
2026-05-04 04:24 34.92726 134.10359 25879 ft 439 kts 287°
2026-05-04 04:25 34.94177 134.07072 26132 ft 442 kts 287°
2026-05-04 04:25 34.95632 134.03776 26564 ft 442 kts 287°
2026-05-04 04:25 34.97093 134.00467 26817 ft 446 kts 287°
2026-05-04 04:25 34.98573 133.97121 26956 ft 451 kts 287°
2026-05-04 04:26 35.00066 133.93748 27196 ft 453 kts 287°
2026-05-04 04:26 35.01563 133.90369 27459 ft 454 kts 287°
2026-05-04 04:26 35.03063 133.86972 27717 ft 455 kts 287°
2026-05-04 04:26 35.04564 133.83567 27949 ft 457 kts 287°
2026-05-04 04:27 35.06070 133.80144 28218 ft 458 kts 286°
2026-05-04 04:27 35.07575 133.76721 28541 ft 458 kts 287°
2026-05-04 04:27 35.09077 133.73301 28943 ft 456 kts 286°
2026-05-04 04:27 35.10571 133.69898 29348 ft 454 kts 286°
2026-05-04 04:28 35.12043 133.66539 29756 ft 454 kts 286°
2026-05-04 04:28 35.13530 133.63143 30151 ft 452 kts 286°
2026-05-04 04:28 35.15006 133.59776 30702 ft 446 kts 286°
2026-05-04 04:28 35.16463 133.56452 31134 ft 443 kts 285°
2026-05-04 04:29 35.17911 133.53134 31478 ft 441 kts 285°
2026-05-04 04:29 35.19350 133.49827 31810 ft 441 kts 285°
2026-05-04 04:29 35.20787 133.46521 32184 ft 440 kts 286°
2026-05-04 04:29 35.22221 133.43230 32794 ft 435 kts 285°
2026-05-04 04:30 35.23636 133.39977 33300 ft 432 kts 285°
2026-05-04 04:30 35.25040 133.36745 33677 ft 430 kts 285°
2026-05-04 04:30 35.26441 133.33506 33804 ft 433 kts 285°
2026-05-04 04:30 35.27851 133.30236 33847 ft 434 kts 285°
2026-05-04 04:31 35.30671 133.23722 33879 ft 430 kts 285°
2026-05-04 04:31 35.33445 133.17318 33890 ft 420 kts 284°
2026-05-04 04:32 35.36136 133.11084 33910 ft 414 kts 284°
2026-05-04 04:32 35.38826 133.04795 33910 ft 421 kts 284°
2026-05-04 04:33 35.41573 132.98384 33909 ft 427 kts 284°
2026-05-04 04:33 35.44327 132.91989 33911 ft 420 kts 284°
2026-05-04 04:34 35.47030 132.85674 33912 ft 417 kts 284°
2026-05-04 04:34 35.50156 132.79538 33916 ft 433 kts 292°
2026-05-04 04:35 35.54063 132.73782 33908 ft 447 kts 298°
2026-05-04 04:35 35.56200 132.71043 33909 ft 434 kts 293°
2026-05-04 04:35 35.57695 132.67981 33920 ft 409 kts 280°
2026-05-04 04:36 35.59189 132.61406 33935 ft 395 kts 269°
2026-05-04 04:36 35.60040 132.54732 33922 ft 396 kts 269°
2026-05-04 04:37 35.61749 132.41380 33931 ft 394 kts 269°
2026-05-04 04:38 35.62606 132.34737 33936 ft 393 kts 269°
2026-05-04 04:38 35.63315 132.29235 33931 ft 391 kts 269°
2026-05-04 04:39 35.64159 132.22653 33933 ft 389 kts 269°
2026-05-04 04:39 35.65130 132.15044 33945 ft 386 kts 269°
2026-05-04 04:40 35.65823 132.09594 33940 ft 384 kts 269°
2026-05-04 04:40 35.66640 132.03133 33931 ft 381 kts 269°
2026-05-04 04:41 35.67450 131.96687 33963 ft 382 kts 269°
2026-05-04 04:41 35.68258 131.90232 33950 ft 382 kts 269°
2026-05-04 04:42 35.69064 131.83770 33947 ft 382 kts 269°
2026-05-04 04:42 35.69868 131.77300 34001 ft 383 kts 269°
2026-05-04 04:43 35.70664 131.70867 33960 ft 382 kts 269°
2026-05-04 04:43 35.71461 131.64411 33942 ft 381 kts 269°
2026-05-04 04:44 35.72250 131.57977 33942 ft 380 kts 269°
2026-05-04 04:44 35.73033 131.51563 33968 ft 378 kts 269°
2026-05-04 04:45 35.73809 131.45191 33953 ft 375 kts 268°
2026-05-04 04:47 35.76476 131.22983 33961 ft 375 kts 269°
2026-05-04 04:47 35.77231 131.16648 33961 ft 373 kts 268°
2026-05-04 04:48 35.77980 131.10331 33974 ft 373 kts 269°
2026-05-04 04:49 35.79827 130.94608 33965 ft 370 kts 269°
2026-05-04 04:49 35.80556 130.88342 33975 ft 370 kts 270°
2026-05-04 04:50 35.81286 130.82049 33967 ft 372 kts 270°
2026-05-04 04:50 35.82018 130.75730 33963 ft 373 kts 270°
2026-05-04 04:51 35.82766 130.69374 33967 ft 377 kts 270°
2026-05-04 04:51 35.83581 130.63019 33968 ft 379 kts 271°
2026-05-04 04:52 35.84409 130.56585 33963 ft 381 kts 271°
2026-05-04 04:52 35.85232 130.50124 33960 ft 382 kts 271°
2026-05-04 04:53 35.86049 130.43647 33969 ft 383 kts 271°
2026-05-04 04:53 35.86863 130.37172 33965 ft 382 kts 271°
2026-05-04 04:54 35.87670 130.30719 33959 ft 380 kts 271°
2026-05-04 04:54 35.88469 130.24289 34001 ft 379 kts 271°
2026-05-04 04:55 35.89263 130.17873 33965 ft 377 kts 271°
2026-05-04 04:55 35.90050 130.11487 33881 ft 376 kts 271°
2026-05-04 04:56 35.90831 130.05116 33950 ft 375 kts 271°
2026-05-04 04:56 35.91610 129.98726 33959 ft 377 kts 271°
2026-05-04 04:57 35.92384 129.92360 33953 ft 378 kts 271°
2026-05-04 04:57 35.93162 129.85937 33951 ft 379 kts 271°
2026-05-04 04:58 35.93935 129.79507 33972 ft 379 kts 271°
2026-05-04 04:58 35.94698 129.73069 33948 ft 379 kts 271°
2026-05-04 04:59 35.95459 129.66629 33942 ft 379 kts 271°
2026-05-04 04:59 35.96218 129.60189 33942 ft 379 kts 271°
2026-05-04 05:00 35.97010 129.53755 33948 ft 382 kts 275°
2026-05-04 05:00 35.98763 129.47452 33945 ft 393 kts 283°
2026-05-04 05:01 35.99862 129.44344 33941 ft 397 kts 285°
2026-05-04 05:01 36.02816 129.38427 33937 ft 411 kts 293°
2026-05-04 05:02 36.06181 129.32697 33955 ft 412 kts 294°
2026-05-04 05:02 36.09535 129.26954 33941 ft 412 kts 294°
2026-05-04 05:03 36.12864 129.21182 33934 ft 412 kts 293°
2026-05-04 05:04 36.19508 129.09602 33945 ft 413 kts 294°
2026-05-04 05:04 36.22814 129.03806 33918 ft 415 kts 294°
2026-05-04 05:06 36.36179 128.80334 33937 ft 423 kts 295°
2026-05-04 05:07 36.39563 128.74387 33932 ft 425 kts 295°
2026-05-04 05:07 36.42964 128.68399 33925 ft 424 kts 295°
2026-05-04 05:09 36.58261 128.41296 33936 ft 427 kts 297°
2026-05-04 05:10 36.61668 128.35235 33929 ft 427 kts 297°
2026-05-04 05:10 36.65088 128.29177 33925 ft 428 kts 297°
2026-05-04 05:11 36.68553 128.23143 33931 ft 427 kts 297°
2026-05-04 05:11 36.72002 128.17102 33948 ft 428 kts 297°
2026-05-04 05:12 36.75437 128.11075 33949 ft 430 kts 298°
2026-05-04 05:12 36.78913 128.04970 33923 ft 432 kts 297°
2026-05-04 05:13 36.82382 127.98869 33917 ft 430 kts 297°
2026-05-04 05:13 36.85818 127.92792 33936 ft 428 kts 298°
2026-05-04 05:14 36.89226 127.86704 33942 ft 428 kts 298°
2026-05-04 05:14 36.92633 127.80616 33380 ft 430 kts 298°
2026-05-04 05:15 36.94347 127.77562 32703 ft 426 kts 299°
2026-05-04 05:15 36.96062 127.74526 31776 ft 427 kts 300°
2026-05-04 05:15 36.97772 127.71501 30938 ft 425 kts 300°
2026-05-04 05:15 36.99466 127.68501 30306 ft 420 kts 301°
2026-05-04 05:16 37.01145 127.65527 29595 ft 416 kts 301°
2026-05-04 05:16 37.02801 127.62580 28892 ft 411 kts 301°
2026-05-04 05:16 37.04426 127.59665 28253 ft 406 kts 301°
2026-05-04 05:16 37.06031 127.56773 27618 ft 402 kts 302°
2026-05-04 05:17 37.07614 127.53919 27010 ft 398 kts 302°
2026-05-04 05:17 37.09187 127.51083 26406 ft 395 kts 302°
2026-05-04 05:17 37.10746 127.48273 25808 ft 392 kts 302°
2026-05-04 05:17 37.12293 127.45481 25225 ft 389 kts 303°
2026-05-04 05:18 37.13834 127.42702 24653 ft 387 kts 303°
2026-05-04 05:18 37.15352 127.39974 24090 ft 386 kts 303°
2026-05-04 05:18 37.16884 127.37220 23507 ft 385 kts 303°
2026-05-04 05:18 37.18413 127.34464 22829 ft 384 kts 304°
2026-05-04 05:19 37.19932 127.31725 22220 ft 382 kts 304°
2026-05-04 05:19 37.21444 127.28998 21636 ft 379 kts 304°
2026-05-04 05:19 37.22941 127.26291 21086 ft 376 kts 304°
2026-05-04 05:19 37.24418 127.23620 20852 ft 366 kts 305°
2026-05-04 05:20 37.25836 127.21033 20676 ft 352 kts 302°
2026-05-04 05:20 37.26814 127.18282 20559 ft 341 kts 288°
2026-05-04 05:20 37.27181 127.15382 20427 ft 334 kts 276°
2026-05-04 05:20 37.27196 127.12505 20279 ft 325 kts 274°
2026-05-04 05:21 37.27171 127.09710 20140 ft 315 kts 274°
2026-05-04 05:21 37.27147 127.07008 20001 ft 305 kts 274°
2026-05-04 05:21 37.27133 127.04394 19873 ft 294 kts 274°
2026-05-04 05:21 37.27127 127.01876 19745 ft 282 kts 274°
2026-05-04 05:22 37.27125 126.99461 19626 ft 271 kts 275°
2026-05-04 05:22 37.27124 126.97151 19526 ft 258 kts 275°
2026-05-04 05:22 37.27122 126.94957 19413 ft 245 kts 275°
2026-05-04 05:22 37.27130 126.92822 19079 ft 242 kts 280°
2026-05-04 05:23 37.27571 126.90835 18777 ft 237 kts 300°
2026-05-04 05:23 37.28527 126.89128 18448 ft 242 kts 313°
2026-05-04 05:23 37.29725 126.87623 18083 ft 245 kts 316°
2026-05-04 05:23 37.30948 126.86140 17731 ft 245 kts 316°
2026-05-04 05:24 37.32168 126.84645 17306 ft 244 kts 315°
2026-05-04 05:24 37.33373 126.83157 16928 ft 241 kts 315°
2026-05-04 05:24 37.34547 126.81687 16597 ft 236 kts 314°
2026-05-04 05:24 37.35674 126.80209 16252 ft 232 kts 314°
2026-05-04 05:25 37.36772 126.78744 15909 ft 228 kts 310°
2026-05-04 05:25 37.37460 126.76959 15560 ft 231 kts 285°
2026-05-04 05:25 37.37520 126.74914 15218 ft 241 kts 270°
2026-05-04 05:25 37.37026 126.72858 14821 ft 255 kts 247°
2026-05-04 05:26 37.35811 126.71204 14456 ft 275 kts 216°
2026-05-04 05:26 37.33933 126.70549 14129 ft 289 kts 182°
2026-05-04 05:26 37.31995 126.71215 13830 ft 293 kts 148°
2026-05-04 05:26 37.30332 126.72671 13528 ft 291 kts 143°
2026-05-04 05:27 37.28690 126.74178 13203 ft 294 kts 143°
2026-05-04 05:28 37.17879 126.83778 11198 ft 277 kts 144°
2026-05-04 05:29 37.16306 126.85160 10915 ft 275 kts 146°
2026-05-04 05:29 37.14637 126.86152 10610 ft 267 kts 173°
2026-05-04 05:29 37.12818 126.86023 10327 ft 257 kts 204°
2026-05-04 05:29 37.11267 126.84964 10005 ft 254 kts 225°
2026-05-04 05:31 37.13593 126.74749 7808 ft 207 kts 325°
2026-05-04 05:31 37.14785 126.73717 7517 ft 209 kts 325°
2026-05-04 05:32 37.15967 126.72649 7212 ft 209 kts 318°
2026-05-04 05:32 37.16802 126.71168 6915 ft 209 kts 301°
2026-05-04 05:32 37.17530 126.69579 6606 ft 212 kts 303°
2026-05-04 05:33 37.19133 126.66498 5936 ft 204 kts 318°
2026-05-04 05:33 37.20242 126.65432 5668 ft 201 kts 324°
2026-05-04 05:33 37.21399 126.64435 5385 ft 202 kts 325°
2026-05-04 05:33 37.22560 126.63429 5115 ft 203 kts 325°
2026-05-04 05:34 37.23682 126.62445 5036 ft 192 kts 325°
2026-05-04 05:34 37.24747 126.61503 4980 ft 181 kts 324°
2026-05-04 05:34 37.25782 126.60595 4574 ft 185 kts 324°
2026-05-04 05:34 37.26803 126.59695 4235 ft 170 kts 324°
2026-05-04 05:35 37.27728 126.58877 4012 ft 158 kts 323°
2026-05-04 05:35 37.28609 126.58099 3795 ft 151 kts 323°
2026-05-04 05:35 37.29444 126.57362 3607 ft 142 kts 322°
2026-05-04 05:35 37.30224 126.56674 3438 ft 133 kts 322°
2026-05-04 05:36 37.30992 126.55993 3264 ft 138 kts 322°
2026-05-04 05:36 37.31778 126.55297 3085 ft 139 kts 322°
2026-05-04 05:36 37.32568 126.54598 2887 ft 139 kts 322°
2026-05-04 05:36 37.33357 126.53900 2695 ft 138 kts 321°
2026-05-04 05:37 37.34136 126.53211 2516 ft 136 kts 321°
2026-05-04 05:37 37.34917 126.52520 2327 ft 138 kts 321°
2026-05-04 05:37 37.35705 126.51822 2142 ft 139 kts 320°
2026-05-04 05:38 37.37265 126.50441 1763 ft 135 kts 320°
2026-05-04 05:38 37.38042 126.49751 1587 ft 139 kts 320°
2026-05-04 05:38 37.38832 126.49051 1402 ft 142 kts 320°
2026-05-04 05:38 37.39636 126.48339 1200 ft 140 kts 320°
2026-05-04 05:39 37.40420 126.47644 1035 ft 138 kts 320°
2026-05-04 05:39 37.42059 126.46244 656 ft 146 kts 319°
2026-05-04 05:39 37.42893 126.45490 418 ft 148 kts 320°
2026-05-04 05:40 37.44537 126.43998 45 ft 141 kts 319°
2026-05-04 05:40 37.45248 126.43346 37 ft 106 kts 325°
2026-05-04 05:40 37.45697 126.42949 39 ft 52 kts 323°
2026-05-04 05:41 37.45852 126.42819 37 ft 13 kts 330°
2026-05-04 05:41 37.46026 126.42729 36 ft 32 kts 346°
2026-05-04 05:41 37.46164 126.42711 37 ft 19 kts 355°
2026-05-04 05:41 37.46257 126.42706 37 ft 11 kts
2026-05-04 05:42 37.46321 126.42744 37 ft 11 kts 51°
2026-05-04 05:42 37.46321 126.42828 37 ft 11 kts 133°
2026-05-04 05:42 37.46259 126.42881 37 ft 11 kts 147°
2026-05-04 05:42 37.46198 126.42933 37 ft 11 kts 146°
2026-05-04 05:43 37.46134 126.42988 37 ft 13 kts 146°
2026-05-04 05:43 37.46010 126.43093 37 ft 30 kts 146°
2026-05-04 05:43 37.45814 126.43266 37 ft 39 kts 143°
2026-05-04 05:45 37.45458 126.44764 36 ft 35 kts 54°
2026-05-04 05:45 37.45595 126.45007 36 ft 33 kts 54°
2026-05-04 05:47 37.46302 126.46185 36 ft 11 kts 330°
2026-05-04 05:47 37.46404 126.46115 37 ft 18 kts
2026-05-04 05:47 37.46461 126.46226 36 ft 16 kts 70°
2026-05-04 05:48 37.46510 126.46347 36 ft 16 kts 62°
2026-05-04 05:48 37.46569 126.46458 36 ft 12 kts 56°
2026-05-04 05:48 37.46609 126.46534 36 ft 10 kts 56°
2026-05-04 05:48 37.46642 126.46594 36 ft 7 kts 56°
2026-05-04 05:49 37.46666 126.46640 36 ft 6 kts 56°
2026-05-04 05:49 37.46690 126.46668 36 ft 4 kts 28°
2026-05-04 05:49 37.46716 126.46672 36 ft 4 kts
2026-05-04 05:49 37.46742 126.46665 36 ft 4 kts 337°
2026-05-04 05:51 37.46777 126.46636 36 ft 0 kts 324°